| time (UTC) | temp F | wind direction | speed MPH | gust MPH | rain 1hr in | rain 24hr in | rain mn in | humidity % | barometer mb |
| 20260507101619 | 63 | 180 | 4.0 | 7.0 | 0.00 | 0.01 | 0.01 | 47 | 995.8 |
| 20260507101119 | 63 | 180 | 5.0 | 7.0 | 0.00 | 0.01 | 0.01 | 50 | 995.7 |
| 20260507100614 | 63 | 176 | 5.0 | 7.0 | 0.00 | 0.01 | 0.01 | 50 | 995.5 |
| 20260507100114 | 64 | 187 | 5.0 | 9.0 | 0.00 | 0.01 | 0.01 | 47 | 995.6 |
| 20260507095606 | 64 | 181 | 6.0 | 9.0 | 0.00 | 0.01 | 0.01 | 46 | 995.5 |
| 20260507095103 | 64 | 175 | 5.0 | 9.0 | 0.00 | 0.01 | 0.01 | 49 | 995.4 |
| 20260507094559 | 64 | 167 | 6.0 | 9.0 | 0.00 | 0.01 | 0.01 | 47 | 995.4 |
| 20260507094044 | 64 | 169 | 6.0 | 7.0 | 0.00 | 0.01 | 0.01 | 47 | 995.2 |
| 20260507093540 | 65 | 170 | 4.0 | 7.0 | 0.00 | 0.01 | 0.01 | 47 | 995.1 |
| 20260507093035 | 65 | 180 | 4.0 | 7.0 | 0.00 | 0.01 | 0.01 | 45 | 995.1 |
| 20260507093023 | 65 | 195 | 5.0 | 8.0 | 0.00 | 0.01 | 0.01 | 46 | 994.9 |
| 20260507092026 | 65 | 176 | 4.0 | 8.0 | 0.00 | 0.01 | 0.01 | 45 | 994.9 |
| 20260507091523 | 66 | 173 | 5.0 | 8.0 | 0.00 | 0.01 | 0.01 | 45 | 994.8 |
| 20260507091019 | 66 | 172 | 4.0 | 8.0 | 0.00 | 0.01 | 0.01 | 46 | 995.0 |
| 20260507090517 | 67 | 188 | 5.0 | 8.0 | 0.00 | 0.01 | 0.01 | 45 | 994.8 |
| 20260507090016 | 67 | 162 | 6.0 | 8.0 | 0.00 | 0.01 | 0.01 | 45 | 994.6 |
| 20260507085517 | 67 | 180 | 5.0 | 8.0 | 0.00 | 0.01 | 0.01 | 45 | 994.6 |
| 20260507085016 | 67 | 169 | 5.0 | 9.0 | 0.00 | 0.01 | 0.01 | 45 | 994.6 |
| 20260507084517 | 67 | 166 | 6.0 | 9.0 | 0.00 | 0.01 | 0.01 | 47 | 994.5 |
| 20260507084014 | 67 | 167 | 6.0 | 7.0 | 0.00 | 0.01 | 0.01 | 45 | 994.7 |
| 20260507083510 | 67 | 184 | 4.0 | 7.0 | 0.00 | 0.01 | 0.01 | 46 | 994.3 |
| 20260507083218 | 67 | 174 | 5.0 | 7.0 | 0.00 | 0.01 | 0.01 | 48 | 994.4 |
| 20260507082451 | 67 | 170 | 5.0 | 7.0 | 0.00 | 0.01 | 0.01 | 43 | 994.3 |
| 20260507082202 | 68 | 182 | 5.0 | 9.0 | 0.00 | 0.01 | 0.01 | 45 | 994.5 |
| 20260507081705 | 68 | 176 | 6.0 | 9.0 | 0.00 | 0.01 | 0.01 | 42 | 994.4 |
| 20260507080930 | 68 | 175 | 5.0 | 8.0 | 0.00 | 0.01 | 0.01 | 41 | 994.2 |
| 20260507080425 | 68 | 178 | 6.0 | 9.0 | 0.00 | 0.01 | 0.01 | 41 | 994.1 |
| 20260507075921 | 68 | 183 | 5.0 | 9.0 | 0.00 | 0.01 | 0.01 | 43 | 993.8 |
| 20260507075414 | 68 | 182 | 4.0 | 9.0 | 0.00 | 0.01 | 0.01 | 43 | 994.0 |
| 20260507075139 | 69 | 163 | 6.0 | 9.0 | 0.00 | 0.01 | 0.01 | 45 | 993.9 |
| 20260507074636 | 68 | 176 | 5.0 | 8.0 | 0.00 | 0.01 | 0.01 | 42 | 993.8 |
| 20260507073913 | 68 | 185 | 5.0 | 8.0 | 0.00 | 0.01 | 0.01 | 43 | 993.8 |
| 20260507073410 | 69 | 168 | 4.0 | 8.0 | 0.00 | 0.01 | 0.01 | 43 | 993.7 |
| 20260507072856 | 69 | 176 | 4.0 | 10.0 | 0.00 | 0.01 | 0.01 | 43 | 993.6 |
| 20260507072615 | 69 | 178 | 5.0 | 10.0 | 0.00 | 0.01 | 0.01 | 42 | 993.6 |
| 20260507071847 | 69 | 182 | 5.0 | 10.0 | 0.00 | 0.01 | 0.01 | 41 | 993.6 |
| 20260507071344 | 69 | 171 | 6.0 | 9.0 | 0.00 | 0.01 | 0.01 | 40 | 993.6 |
| 20260507070839 | 69 | 180 | 4.0 | 7.0 | 0.00 | 0.01 | 0.01 | 44 | 993.4 |
| 20260507070335 | 69 | 168 | 5.0 | 7.0 | 0.00 | 0.01 | 0.01 | 44 | 993.5 |
| 20260507065830 | 70 | 175 | 4.0 | 6.0 | 0.00 | 0.01 | 0.01 | 45 | 993.5 |
| 20260507065325 | 70 | 174 | 5.0 | 6.0 | 0.00 | 0.01 | 0.01 | 42 | 993.4 |
| 20260507064822 | 70 | 175 | 4.0 | 6.0 | 0.00 | 0.01 | 0.01 | 46 | 993.4 |
| 20260507064318 | 71 | 170 | 3.0 | 9.0 | 0.00 | 0.01 | 0.01 | 43 | 993.2 |
| 20260507063812 | 71 | 174 | 5.0 | 9.0 | 0.00 | 0.01 | 0.01 | 43 | 993.0 |
| 20260507063309 | 71 | 174 | 6.0 | 8.0 | 0.00 | 0.01 | 0.01 | 44 | 993.0 |
| 20260507062806 | 71 | 162 | 5.0 | 8.0 | 0.00 | 0.01 | 0.01 | 46 | 992.7 |
| 20260507062305 | 72 | 177 | 5.0 | 6.0 | 0.00 | 0.01 | 0.01 | 47 | 993.1 |
| 20260507061742 | 72 | 180 | 4.0 | 6.0 | 0.00 | 0.01 | 0.01 | 48 | 992.8 |
| 20260507061242 | 72 | 173 | 5.0 | 6.0 | 0.00 | 0.01 | 0.01 | 48 | 993.0 |
| 20260507060739 | 72 | 179 | 5.0 | 6.0 | 0.00 | 0.01 | 0.01 | 48 | 992.9 |
| 20260507060235 | 73 | 177 | 5.0 | 6.0 | 0.00 | 0.01 | 0.01 | 52 | 992.8 |
| 20260507055730 | 73 | 196 | 4.0 | 7.0 | 0.00 | 0.01 | 0.01 | 46 | 992.7 |
| 20260507055451 | 73 | 178 | 4.0 | 7.0 | 0.00 | 0.01 | 0.01 | 47 | 992.7 |
| 20260507054723 | 73 | 168 | 5.0 | 6.0 | 0.00 | 0.01 | 0.01 | 46 | 992.6 |
| 20260507054218 | 74 | 202 | 3.0 | 7.0 | 0.00 | 0.01 | 0.01 | 45 | 992.7 |
| 20260507053714 | 74 | 184 | 4.0 | 8.0 | 0.00 | 0.01 | 0.01 | 47 | 992.5 |
| 20260507053150 | 74 | 174 | 5.0 | 10.0 | 0.00 | 0.01 | 0.01 | 46 | 992.5 |
| 20260507052635 | 74 | 188 | 5.0 | 11.0 | 0.00 | 0.01 | 0.01 | 45 | 992.5 |
| 20260507052130 | 75 | 176 | 6.0 | 11.0 | 0.00 | 0.01 | 0.01 | 45 | 992.4 |
| 20260507051616 | 75 | 181 | 4.0 | 9.0 | 0.00 | 0.01 | 0.01 | 45 | 992.6 |
| 20260507051112 | 75 | 185 | 4.0 | 9.0 | 0.00 | 0.01 | 0.01 | 47 | 992.6 |
| 20260507050825 | 76 | 190 | 5.0 | 9.0 | 0.00 | 0.01 | 0.01 | 45 | 992.5 |
| 20260507050106 | 76 | 170 | 5.0 | 9.0 | 0.00 | 0.01 | 0.01 | 43 | 992.6 |
| 20260507045810 | 76 | 180 | 4.0 | 9.0 | 0.00 | 0.01 | 0.01 | 46 | 992.6 |
| 20260507045047 | 76 | 191 | 6.0 | 9.0 | 0.00 | 0.01 | 0.01 | 42 | 992.8 |
| 20260507044541 | 76 | 195 | 5.0 | 9.0 | 0.00 | 0.01 | 0.01 | 46 | 992.7 |
| 20260507044246 | 77 | 215 | 8.0 | 9.0 | 0.00 | 0.01 | 0.01 | 46 | 992.8 |
| 20260507043523 | 77 | 176 | 5.0 | 9.0 | 0.00 | 0.01 | 0.01 | 43 | 992.9 |
| 20260507043020 | 78 | 201 | 5.0 | 8.0 | 0.00 | 0.01 | 0.01 | 49 | 992.9 |
| 20260507042516 | 79 | 182 | 4.0 | 8.0 | 0.00 | 0.01 | 0.01 | 45 | 992.8 |
| 20260507042009 | 79 | 173 | 4.0 | 7.0 | 0.00 | 0.01 | 0.01 | 44 | 992.8 |
| 20260507041509 | 79 | 184 | 5.0 | 7.0 | 0.00 | 0.01 | 0.01 | 46 | 992.9 |
| 20260507041008 | 79 | 184 | 5.0 | 7.0 | 0.00 | 0.01 | 0.01 | 49 | 992.8 |
| 20260507040509 | 78 | 197 | 4.0 | 7.0 | 0.00 | 0.01 | 0.01 | 50 | 992.8 |
| 20260507040005 | 78 | 182 | 4.0 | 10.0 | 0.00 | 0.01 | 0.01 | 47 | 993.0 |
| 20260507035500 | 77 | 177 | 5.0 | 11.0 | 0.00 | 0.01 | 0.01 | 49 | 992.8 |
| 20260507034957 | 78 | 181 | 4.0 | 11.0 | 0.00 | 0.01 | 0.01 | 44 | 992.9 |
| 20260507034443 | 78 | 197 | 5.0 | 9.0 | 0.00 | 0.01 | 0.01 | 49 | 993.0 |
| 20260507033927 | 79 | 188 | 5.0 | 12.0 | 0.00 | 0.01 | 0.01 | 48 | 993.1 |
| 20260507033423 | 79 | 178 | 6.0 | 12.0 | 0.00 | 0.01 | 0.01 | 54 | 992.9 |
| 20260507032919 | 79 | 170 | 6.0 | 9.0 | 0.00 | 0.01 | 0.01 | 49 | 992.8 |
| 20260507032416 | 79 | 166 | 6.0 | 9.0 | 0.00 | 0.01 | 0.01 | 54 | 992.8 |
| 20260507031912 | 79 | 178 | 7.0 | 10.0 | 0.00 | 0.01 | 0.01 | 53 | 993.1 |
| 20260507031406 | 78 | 176 | 5.0 | 10.0 | 0.00 | 0.01 | 0.01 | 56 | 993.2 |
| 20260507031343 | 78 | 172 | 8.0 | 10.0 | 0.00 | 0.01 | 0.01 | 61 | 993.2 |
| 20260507030618 | 78 | 197 | 6.0 | 10.0 | 0.00 | 0.01 | 0.01 | 62 | 993.2 |
| 20260507025855 | 79 | 187 | 5.0 | 8.0 | 0.00 | 0.01 | 0.01 | 60 | 993.3 |
| 20260507025350 | 79 | 188 | 5.0 | 8.0 | 0.00 | 0.01 | 0.01 | 63 | 993.4 |
| 20260507024846 | 80 | 171 | 4.0 | 8.0 | 0.00 | 0.01 | 0.01 | 64 | 993.5 |
| 20260507024336 | 80 | 180 | 4.0 | 8.0 | 0.00 | 0.01 | 0.01 | 64 | 993.4 |
| 20260507023837 | 79 | 202 | 5.0 | 8.0 | 0.00 | 0.01 | 0.01 | 65 | 993.5 |
| 20260507023335 | 78 | 203 | 5.0 | 9.0 | 0.00 | 0.01 | 0.01 | 68 | 993.7 |
| 20260507022830 | 77 | 171 | 5.0 | 9.0 | 0.00 | 0.01 | 0.01 | 67 | 993.6 |
| 20260507022327 | 78 | 186 | 5.0 | 9.0 | 0.00 | 0.01 | 0.01 | 67 | 993.7 |
| 20260507022045 | 79 | 175 | 6.0 | 9.0 | 0.00 | 0.01 | 0.01 | 65 | 993.9 |
| 20260507021317 | 78 | 175 | 5.0 | 7.0 | 0.00 | 0.01 | 0.01 | 64 | 993.8 |
| 20260507020814 | 77 | 168 | 5.0 | 7.0 | 0.00 | 0.01 | 0.01 | 70 | 994.0 |
| 20260507020309 | 77 | 181 | 5.0 | 7.0 | 0.00 | 0.01 | 0.01 | 69 | 994.1 |
| 20260507015805 | 77 | 179 | 5.0 | 7.0 | 0.00 | 0.01 | 0.01 | 70 | 994.1 |
| 20260507015531 | 78 | 182 | 5.0 | 8.0 | 0.00 | 0.01 | 0.01 | 69 | 994.2 |
| 20260507014805 | 79 | 188 | 5.0 | 8.0 | 0.00 | 0.01 | 0.01 | 67 | 994.1 |
| 20260507014304 | 78 | 178 | 5.0 | 7.0 | 0.00 | 0.01 | 0.01 | 68 | 994.1 |
| 20260507014024 | 79 | 197 | 5.0 | 6.0 | 0.00 | 0.01 | 0.01 | 67 | 994.2 |
| 20260507013305 | 79 | 200 | 4.0 | 6.0 | 0.00 | 0.01 | 0.01 | 68 | 994.2 |
| 20260507012801 | 79 | 171 | 4.0 | 8.0 | 0.00 | 0.01 | 0.01 | 67 | 994.2 |
| 20260507012257 | 79 | 199 | 5.0 | 8.0 | 0.00 | 0.01 | 0.01 | 66 | 994.3 |
| 20260507011752 | 80 | 189 | 5.0 | 8.0 | 0.00 | 0.01 | 0.01 | 64 | 994.5 |
| 20260507011301 | 80 | 189 | 4.0 | 8.0 | 0.00 | 0.01 | 0.01 | 66 | 994.6 |
| 20260507010744 | 80 | 172 | 5.0 | 8.0 | 0.00 | 0.01 | 0.01 | 64 | 994.6 |
| 20260507010252 | 79 | 175 | 4.0 | 8.0 | 0.00 | 0.01 | 0.01 | 66 | 994.6 |
| 20260507005734 | 79 | 181 | 5.0 | 9.0 | 0.00 | 0.01 | 0.01 | 66 | 994.7 |
| 20260507005212 | 79 | 186 | 4.0 | 9.0 | 0.00 | 0.01 | 0.01 | 65 | 994.7 |
| 20260507004707 | 79 | 174 | 5.0 | 9.0 | 0.00 | 0.01 | 0.01 | 66 | 994.8 |
| 20260507004204 | 79 | 196 | 4.0 | 7.0 | 0.00 | 0.01 | 0.01 | 68 | 995.0 |
| 20260507003649 | 79 | 188 | 3.0 | 7.0 | 0.00 | 0.01 | 0.01 | 68 | 995.0 |
| 20260507003145 | 80 | 194 | 4.0 | 7.0 | 0.00 | 0.01 | 0.01 | 67 | 995.4 |
| 20260507002641 | 80 | 190 | 5.0 | 7.0 | 0.00 | 0.01 | 0.01 | 69 | 995.5 |
| 20260507002132 | 79 | 169 | 4.0 | 6.0 | 0.00 | 0.01 | 0.01 | 69 | 995.6 |
| 20260507001612 | 78 | 177 | 4.0 | 7.0 | 0.00 | 0.01 | 0.01 | 72 | 995.5 |
| 20260507001102 | 79 | 177 | 5.0 | 7.0 | 0.00 | 0.01 | 0.01 | 74 | 995.6 |
| 20260507000824 | 78 | 161 | 5.0 | 8.0 | 0.00 | 0.01 | 0.01 | 72 | 995.7 |
| 20260507000105 | 78 | 187 | 4.0 | 8.0 | 0.00 | 0.01 | 0.01 | 73 | 995.6 |
| 20260506235603 | 78 | 191 | 5.0 | 9.0 | 0.00 | 0.01 | 0.01 | 75 | 995.6 |
| 20260506235104 | 78 | 173 | 4.0 | 9.0 | 0.00 | 0.01 | 0.01 | 74 | 995.8 |
| 20260506234532 | 76 | 190 | 4.0 | 8.0 | 0.00 | 0.01 | 0.01 | 75 | 995.9 |
| 20260506234032 | 78 | 198 | 5.0 | 6.0 | 0.00 | 0.02 | 0.01 | 73 | 995.9 |
| 20260506233528 | 76 | 171 | 5.0 | 6.0 | 0.00 | 0.02 | 0.01 | 74 | 996.0 |
| 20260506233016 | 75 | 186 | 4.0 | 6.0 | 0.00 | 0.02 | 0.01 | 76 | 996.2 |
| 20260506232511 | 74 | 167 | 4.0 | 6.0 | 0.00 | 0.02 | 0.01 | 77 | 996.1 |
| 20260506232007 | 74 | 182 | 5.0 | 6.0 | 0.00 | 0.03 | 0.01 | 78 | 996.3 |
| 20260506231502 | 75 | 195 | 4.0 | 6.0 | 0.00 | 0.03 | 0.01 | 78 | 996.1 |
| 20260506230959 | 74 | 190 | 4.0 | 6.0 | 0.00 | 0.03 | 0.01 | 78 | 996.2 |
| 20260506230444 | 74 | 183 | 4.0 | 6.0 | 0.00 | 0.04 | 0.01 | 78 | 996.1 |
| 20260506225940 | 73 | 178 | 4.0 | 6.0 | 0.00 | 0.04 | 0.01 | 79 | 996.0 |
| 20260506225435 | 72 | 166 | 5.0 | 6.0 | 0.00 | 0.05 | 0.01 | 81 | 996.1 |
| 20260506224922 | 71 | 173 | 4.0 | 6.0 | 0.00 | 0.07 | 0.01 | 83 | 996.0 |
| 20260506224418 | 71 | 166 | 4.0 | 6.0 | 0.00 | 0.08 | 0.01 | 81 | 996.2 |
| 20260506224138 | 72 | 161 | 5.0 | 7.0 | 0.00 | 0.10 | 0.01 | 81 | 996.1 |
| 20260506223409 | 71 | 188 | 4.0 | 7.0 | 0.00 | 0.11 | 0.01 | 85 | 996.2 |
| 20260506222906 | 71 | 192 | 5.0 | 6.0 | 0.00 | 0.12 | 0.01 | 84 | 996.1 |
| 20260506222836 | 70 | 186 | 4.0 | 6.0 | 0.00 | 0.12 | 0.01 | 88 | 996.1 |
| 20260506221847 | 69 | 186 | 5.0 | 6.0 | 0.00 | 0.12 | 0.01 | 95 | 996.1 |
| 20260506221330 | 68 | 187 | 4.0 | 6.0 | 0.00 | 0.12 | 0.01 | 96 | 996.0 |
| 20260506220829 | 68 | 183 | 4.0 | 6.0 | 0.00 | 0.12 | 0.01 | 98 | 996.1 |
| 20260506220314 | 67 | 180 | 4.0 | 6.0 | 0.00 | 0.12 | 0.01 | 98 | 996.2 |
| 20260506215800 | 65 | 193 | 5.0 | 6.0 | 0.00 | 0.13 | 0.01 | 98 | 996.0 |
| 20260506215520 | 65 | 185 | 5.0 | 6.0 | 0.00 | 0.13 | 0.01 | 98 | 996.0 |
| 20260506214759 | 65 | 183 | 4.0 | 6.0 | 0.00 | 0.13 | 0.01 | 99 | 996.1 |
| 20260506214258 | 64 | 189 | 5.0 | 6.0 | 0.00 | 0.13 | 0.01 | 99 | 996.0 |
| 20260506213753 | 64 | 186 | 5.0 | 6.0 | 0.00 | 0.13 | 0.01 | 99 | 995.9 |
| 20260506213250 | 64 | 180 | 5.0 | 6.0 | 0.00 | 0.13 | 0.01 | 99 | 996.0 |
| 20260506213234 | 64 | 180 | 5.0 | 6.0 | 0.00 | 0.13 | 0.01 | 99 | 996.0 |
| 20260506212241 | 62 | 180 | 4.0 | 6.0 | 0.00 | 0.13 | 0.01 | 99 | 995.9 |
| 20260506211737 | 62 | 171 | 5.0 | 6.0 | 0.00 | 0.13 | 0.01 | 99 | 995.8 |
| 20260506211234 | 63 | 168 | 5.0 | 6.0 | 0.00 | 0.13 | 0.01 | 99 | 995.9 |
| 20260506210728 | 62 | 171 | 5.0 | 6.0 | 0.00 | 0.13 | 0.01 | 99 | 995.9 |
| 20260506210228 | 60 | 187 | 5.0 | 6.0 | 0.00 | 0.13 | 0.01 | 99 | 995.7 |
| 20260506205728 | 60 | 173 | 5.0 | 6.0 | 0.00 | 0.13 | 0.01 | 99 | 995.9 |
| 20260506205227 | 60 | 180 | 5.0 | 6.0 | 0.00 | 0.14 | 0.01 | 99 | 995.8 |
| 20260506204703 | 60 | 180 | 5.0 | 6.0 | 0.00 | 0.13 | 0.00 | 99 | 995.8 |
| 20260506204157 | 60 | 180 | 5.0 | 6.0 | 0.00 | 0.14 | 0.00 | 99 | 995.6 |
| 20260506203643 | 60 | 178 | 5.0 | 6.0 | 0.00 | 0.14 | 0.00 | 99 | 995.7 |
| 20260506203130 | 60 | 179 | 5.0 | 6.0 | 0.00 | 0.15 | 0.00 | 99 | 995.7 |
| 20260506202626 | 60 | 186 | 5.0 | 6.0 | 0.00 | 0.16 | 0.00 | 99 | 995.5 |
| 20260506202126 | 60 | 176 | 5.0 | 6.0 | 0.00 | 0.18 | 0.00 | 99 | 995.7 |
| 20260506201627 | 60 | 180 | 4.0 | 6.0 | 0.00 | 0.18 | 0.00 | 99 | 995.5 |
| 20260506201123 | 60 | 182 | 5.0 | 6.0 | 0.00 | 0.18 | 0.00 | 99 | 995.3 |
| 20260506200619 | 60 | 185 | 5.0 | 6.0 | 0.00 | 0.18 | 0.00 | 99 | 995.3 |
| 20260506200114 | 60 | 182 | 5.0 | 6.0 | 0.00 | 0.18 | 0.00 | 99 | 995.3 |
| 20260506195830 | 60 | 180 | 5.0 | 6.0 | 0.00 | 0.18 | 0.00 | 99 | 995.3 |
| 20260506195106 | 60 | 179 | 5.0 | 6.0 | 0.00 | 0.19 | 0.00 | 99 | 995.2 |
| 20260506194551 | 60 | 177 | 5.0 | 6.0 | 0.00 | 0.19 | 0.00 | 99 | 995.2 |
| 20260506194048 | 60 | 178 | 5.0 | 6.0 | 0.00 | 0.19 | 0.00 | 99 | 995.2 |
| 20260506193545 | 60 | 178 | 5.0 | 6.0 | 0.00 | 0.19 | 0.00 | 99 | 995.3 |
| 20260506193040 | 61 | 172 | 5.0 | 6.0 | 0.00 | 0.19 | 0.00 | 99 | 995.2 |
| 20260506192515 | 60 | 177 | 5.0 | 6.0 | 0.00 | 0.19 | 0.00 | 99 | 995.2 |
| 20260506192010 | 60 | 180 | 5.0 | 6.0 | 0.00 | 0.20 | 0.00 | 99 | 995.1 |
| 20260506191447 | 60 | 179 | 5.0 | 6.0 | 0.00 | 0.20 | 0.00 | 99 | 995.2 |
| 20260506191211 | 60 | 179 | 4.0 | 6.0 | 0.00 | 0.22 | 0.00 | 99 | 995.3 |
| 20260506190438 | 60 | 180 | 5.0 | 6.0 | 0.00 | 0.23 | 0.00 | 99 | 995.2 |
| 20260506190151 | 60 | 182 | 5.0 | 6.0 | 0.00 | 0.24 | 0.00 | 99 | 995.3 |
| 20260506185430 | 61 | 179 | 5.0 | 6.0 | 0.00 | 0.25 | 0.00 | 99 | 995.0 |
| 20260506184924 | 61 | 180 | 4.0 | 6.0 | 0.00 | 0.27 | 0.00 | 99 | 995.1 |
| 20260506184421 | 61 | 185 | 5.0 | 6.0 | 0.00 | 0.30 | 0.00 | 99 | 995.1 |
| 20260506183917 | 61 | 174 | 5.0 | 6.0 | 0.00 | 0.32 | 0.00 | 99 | 995.1 |
| 20260506183634 | 61 | 173 | 5.0 | 6.0 | 0.00 | 0.33 | 0.00 | 99 | 995.3 |
| 20260506182909 | 61 | 177 | 5.0 | 6.0 | 0.00 | 0.34 | 0.00 | 99 | 995.1 |
| 20260506182355 | 61 | 173 | 5.0 | 6.0 | 0.00 | 0.35 | 0.00 | 99 | 995.2 |
| 20260506181850 | 61 | 170 | 5.0 | 6.0 | 0.00 | 0.37 | 0.00 | 99 | 995.2 |
| 20260506181837 | 61 | 174 | 5.0 | 6.0 | 0.00 | 0.37 | 0.00 | 99 | 995.4 |
| 20260506180811 | 60 | 182 | 5.0 | 6.0 | 0.00 | 0.38 | 0.00 | 99 | 995.2 |
| 20260506180308 | 60 | 173 | 5.0 | 6.0 | 0.00 | 0.38 | 0.00 | 99 | 995.1 |
| 20260506175803 | 60 | 176 | 5.0 | 6.0 | 0.00 | 0.38 | 0.00 | 99 | 995.4 |
| 20260506175259 | 61 | 172 | 5.0 | 6.0 | 0.00 | 0.38 | 0.00 | 99 | 995.5 |
| 20260506174755 | 60 | 174 | 5.0 | 6.0 | 0.00 | 0.38 | 0.00 | 99 | 995.5 |
| 20260506174250 | 60 | 177 | 5.0 | 6.0 | 0.00 | 0.38 | 0.00 | 99 | 995.4 |
| 20260506173746 | 61 | 172 | 5.0 | 6.0 | 0.00 | 0.38 | 0.00 | 99 | 995.3 |
| 20260506173221 | 61 | 183 | 5.0 | 6.0 | 0.00 | 0.38 | 0.00 | 99 | 995.4 |
| 20260506172717 | 61 | 183 | 5.0 | 6.0 | 0.00 | 0.38 | 0.00 | 99 | 995.3 |
| 20260506172213 | 61 | 176 | 5.0 | 6.0 | 0.00 | 0.38 | 0.00 | 99 | 995.3 |
| 20260506171922 | 61 | 187 | 5.0 | 6.0 | 0.00 | 0.38 | 0.00 | 99 | 995.4 |
| 20260506171421 | 61 | 186 | 5.0 | 6.0 | 0.00 | 0.38 | 0.00 | 99 | 995.4 |
| 20260506170650 | 61 | 177 | 4.0 | 6.0 | 0.00 | 0.38 | 0.00 | 99 | 995.7 |
| 20260506170147 | 61 | 177 | 5.0 | 6.0 | 0.00 | 0.38 | 0.00 | 99 | 995.7 |
| 20260506165622 | 61 | 185 | 5.0 | 6.0 | 0.00 | 0.38 | 0.00 | 99 | 995.7 |
| 20260506165117 | 61 | 176 | 4.0 | 6.0 | 0.00 | 0.38 | 0.00 | 99 | 995.8 |
| 20260506164831 | 61 | 185 | 5.0 | 6.0 | 0.00 | 0.38 | 0.00 | 99 | 995.9 |
| 20260506164109 | 61 | 183 | 5.0 | 6.0 | 0.00 | 0.38 | 0.00 | 99 | 995.9 |
| 20260506163551 | 61 | 183 | 5.0 | 6.0 | 0.00 | 0.38 | 0.00 | 99 | 995.9 |
| 20260506163050 | 61 | 178 | 4.0 | 6.0 | 0.00 | 0.38 | 0.00 | 99 | 996.1 |
| 20260506162536 | 61 | 176 | 5.0 | 6.0 | 0.00 | 0.38 | 0.00 | 99 | 996.0 |
| 20260506162233 | 61 | 180 | 5.0 | 6.0 | 0.00 | 0.38 | 0.00 | 99 | 996.0 |
| 20260506161512 | 61 | 181 | 5.0 | 6.0 | 0.00 | 0.38 | 0.00 | 99 | 996.0 |
| 20260506160954 | 61 | 181 | 5.0 | 6.0 | 0.00 | 0.38 | 0.00 | 99 | 996.0 |
| 20260506160449 | 61 | 180 | 5.0 | 6.0 | 0.00 | 0.38 | 0.00 | 99 | 996.2 |
| 20260506155924 | 61 | 180 | 5.0 | 5.0 | 0.00 | 0.38 | 0.00 | 99 | 996.3 |
| 20260506155629 | 61 | 170 | 4.0 | 5.0 | 0.00 | 0.38 | 0.00 | 99 | 996.2 |
| 20260506154907 | 61 | 173 | 5.0 | 5.0 | 0.00 | 0.38 | 0.00 | 99 | 996.4 |
| 20260506154619 | 61 | 175 | 4.0 | 6.0 | 0.00 | 0.38 | 0.00 | 99 | 996.5 |
| 20260506153859 | 61 | 175 | 5.0 | 6.0 | 0.00 | 0.38 | 0.00 | 99 | 996.4 |
| 20260506153354 | 61 | 172 | 5.0 | 6.0 | 0.00 | 0.38 | 0.00 | 99 | 996.4 |
| 20260506152850 | 61 | 174 | 5.0 | 6.0 | 0.00 | 0.38 | 0.00 | 99 | 996.4 |
| 20260506152348 | 61 | 170 | 5.0 | 6.0 | 0.00 | 0.38 | 0.00 | 99 | 996.5 |
| 20260506151849 | 61 | 180 | 5.0 | 6.0 | 0.00 | 0.38 | 0.00 | 99 | 996.6 |
| 20260506151338 | 61 | 179 | 5.0 | 6.0 | 0.00 | 0.38 | 0.00 | 99 | 996.6 |
| 20260506150812 | 61 | 178 | 4.0 | 6.0 | 0.00 | 0.38 | 0.00 | 99 | 996.7 |
| 20260506150531 | 61 | 175 | 5.0 | 6.0 | 0.00 | 0.38 | 0.00 | 99 | 996.5 |
| 20260506145755 | 61 | 177 | 5.0 | 6.0 | 0.00 | 0.38 | 0.00 | 99 | 996.6 |
| 20260506145247 | 61 | 173 | 5.0 | 6.0 | 0.00 | 0.38 | 0.00 | 99 | 996.6 |
| 20260506144716 | 61 | 180 | 5.0 | 6.0 | 0.00 | 0.38 | 0.00 | 99 | 996.6 |
| 20260506144211 | 61 | 179 | 4.0 | 6.0 | 0.00 | 0.38 | 0.00 | 99 | 996.7 |
| 20260506143707 | 61 | 190 | 5.0 | 6.0 | 0.00 | 0.38 | 0.00 | 99 | 996.5 |
| 20260506143204 | 61 | 173 | 5.0 | 6.0 | 0.00 | 0.38 | 0.00 | 99 | 996.7 |
| 20260506142659 | 61 | 174 | 4.0 | 6.0 | 0.00 | 0.38 | 0.00 | 99 | 996.8 |
| 20260506142155 | 61 | 175 | 5.0 | 6.0 | 0.00 | 0.38 | 0.00 | 99 | 996.9 |
| 20260506141649 | 61 | 172 | 5.0 | 6.0 | 0.00 | 0.38 | 0.00 | 99 | 996.9 |
| 20260506141148 | 61 | 172 | 5.0 | 6.0 | 0.00 | 0.38 | 0.00 | 99 | 996.9 |
| 20260506140649 | 61 | 173 | 5.0 | 6.0 | 0.00 | 0.38 | 0.00 | 99 | 996.8 |
| 20260506140149 | 61 | 177 | 5.0 | 6.0 | 0.00 | 0.38 | 0.00 | 99 | 997.0 |
| 20260506135838 | 61 | 182 | 5.0 | 6.0 | 0.00 | 0.38 | 0.38 | 99 | 997.0 |
| 20260506135110 | 61 | 185 | 4.0 | 6.0 | 0.00 | 0.38 | 0.38 | 99 | 997.1 |
| 20260506134555 | 62 | 180 | 5.0 | 6.0 | 0.00 | 0.38 | 0.38 | 99 | 996.9 |
| 20260506134052 | 62 | 191 | 5.0 | 6.0 | 0.00 | 0.38 | 0.38 | 99 | 997.2 |
| 20260506133547 | 62 | 176 | 5.0 | 5.0 | 0.00 | 0.38 | 0.38 | 99 | 997.1 |
| 20260506133302 | 62 | 177 | 5.0 | 5.0 | 0.00 | 0.38 | 0.38 | 99 | 997.1 |
| 20260506132518 | 61 | 174 | 5.0 | 6.0 | 0.00 | 0.38 | 0.38 | 99 | 997.4 |
| 20260506132013 | 62 | 179 | 5.0 | 6.0 | 0.00 | 0.38 | 0.38 | 99 | 997.4 |
| 20260506131510 | 62 | 171 | 5.0 | 6.0 | 0.00 | 0.38 | 0.38 | 99 | 997.3 |
| 20260506131005 | 62 | 179 | 4.0 | 5.0 | 0.00 | 0.38 | 0.38 | 99 | 997.4 |
| 20260506130451 | 62 | 175 | 5.0 | 6.0 | 0.00 | 0.38 | 0.38 | 99 | 997.5 |
| 20260506125947 | 62 | 172 | 5.0 | 6.0 | 0.00 | 0.38 | 0.38 | 99 | 997.4 |
| 20260506125705 | 62 | 166 | 5.0 | 6.0 | 0.00 | 0.38 | 0.38 | 99 | 997.6 |
| 20260506124929 | 62 | 166 | 5.0 | 6.0 | 0.00 | 0.38 | 0.38 | 98 | 997.6 |
| 20260506124415 | 62 | 186 | 5.0 | 6.0 | 0.00 | 0.38 | 0.38 | 98 | 997.5 |
| 20260506123913 | 62 | 174 | 5.0 | 6.0 | 0.00 | 0.38 | 0.38 | 98 | 997.4 |
| 20260506123414 | 62 | 174 | 5.0 | 6.0 | 0.00 | 0.38 | 0.38 | 98 | 997.2 |
| 20260506122911 | 62 | 183 | 5.0 | 6.0 | 0.00 | 0.38 | 0.38 | 98 | 997.5 |
| 20260506122617 | 62 | 176 | 5.0 | 6.0 | 0.00 | 0.38 | 0.38 | 98 | 997.4 |
| 20260506121842 | 62 | 180 | 5.0 | 6.0 | 0.00 | 0.38 | 0.38 | 98 | 997.4 |
| 20260506121342 | 62 | 179 | 4.0 | 6.0 | 0.00 | 0.38 | 0.38 | 98 | 997.3 |
| 20260506121035 | 62 | 172 | 4.0 | 6.0 | 0.00 | 0.38 | 0.38 | 98 | 997.3 |
| 20260506120310 | 62 | 178 | 5.0 | 6.0 | 0.00 | 0.38 | 0.38 | 98 | 997.7 |
| 20260506115806 | 62 | 176 | 5.0 | 6.0 | 0.00 | 0.38 | 0.38 | 98 | 997.7 |
| 20260506115252 | 62 | 175 | 4.0 | 6.0 | 0.00 | 0.38 | 0.38 | 98 | 997.6 |
| 20260506115011 | 62 | 178 | 5.0 | 6.0 | 0.00 | 0.38 | 0.38 | 98 | 997.9 |
| 20260506114258 | 62 | 181 | 4.0 | 5.0 | 0.00 | 0.38 | 0.38 | 98 | 997.7 |
| 20260506113955 | 62 | 177 | 5.0 | 6.0 | 0.00 | 0.38 | 0.38 | 98 | 998.0 |
| 20260506112732 | 62 | 177 | 5.0 | 6.0 | 0.00 | 0.38 | 0.38 | 98 | 998.2 |
| 20260506112226 | 62 | 182 | 5.0 | 6.0 | 0.00 | 0.38 | 0.38 | 98 | 998.1 |
| 20260506111722 | 62 | 177 | 4.0 | 6.0 | 0.00 | 0.38 | 0.38 | 98 | 998.1 |
| 20260506111219 | 62 | 183 | 5.0 | 6.0 | 0.00 | 0.38 | 0.38 | 98 | 998.1 |
| 20260506110715 | 62 | 170 | 5.0 | 6.0 | 0.00 | 0.38 | 0.38 | 98 | 998.2 |
| 20260506110434 | 62 | 178 | 5.0 | 6.0 | 0.00 | 0.38 | 0.38 | 98 | 998.2 |
| 20260506105707 | 62 | 175 | 5.0 | 6.0 | 0.00 | 0.38 | 0.38 | 98 | 998.0 |
| 20260506105203 | 62 | 192 | 6.0 | 6.0 | 0.00 | 0.38 | 0.38 | 98 | 998.1 |
| 20260506104649 | 62 | 188 | 5.0 | 6.0 | 0.00 | 0.38 | 0.38 | 98 | 998.1 |
| 20260506104144 | 63 | 178 | 4.0 | 6.0 | 0.00 | 0.38 | 0.38 | 98 | 998.1 |
| 20260506103639 | 63 | 178 | 5.0 | 5.0 | 0.00 | 0.38 | 0.38 | 98 | 998.0 |
| 20260506103140 | 63 | 179 | 4.0 | 5.0 | 0.00 | 0.38 | 0.38 | 98 | 998.3 |
| 20260506102640 | 63 | 177 | 5.0 | 6.0 | 0.00 | 0.38 | 0.38 | 98 | 998.4 |
| 20260506102140 | 63 | 177 | 5.0 | 6.0 | 0.00 | 0.38 | 0.38 | 98 | 998.2 |